map of ROV home
Great Circle Mapper logo
ROV - Airport
Location
City:  Rostov Na Donu, Russian Federation (Russia)
ICAO / IATA:URRR / ROV

Details
Type:Airport (Aerodrome, Airfield)
Use:Public/Civil
Latitude:4715'30"N (47.258208)
Longitude:3949'05"E (39.818089)
Datum:WGS 1984
Elevation:280 ft (85 m)
Variation:7.8E (WMM2015 magnetic declination)
Runways:3
Longest:8202 × 148 ft (2500 × 45 m), paved

Time
Time Zone:UTC+3 (DST+4)

Weather
METAR:URRR 211430Z 35002MPS 2500 -SHRA BR BKN005 SCT033CB OVC100 06/05 Q1011 04290044 TEMPO 0300 FG OVC002 RMK QBB150 MAST OBSC
TAF:URRR 211359Z 2115/2215 VRB02MPS 2000 -SHRA BR BKN005 BKN020CB
TEMPO 2115/2203 30005G10MPS 0300 FG OVC002 BKN020CB
FM220300 30008G13MPS 2100 -SHRASN BKN007 BKN020CB

Related Locations
Nearby:
Farthest:NTAV: 10767 mi / 17328 km
Raivavae, Tubuai Islands, Austral Islands, PF

Find:

   beyond  
but within

Other Information
Maps:
NOTAMs:
Links:
Sources:

  
flag of Russian Federation (Russia)   

Sectional Chart

Flight Planning
at skyvector.com

Satellite Image

Google Maps Satellite View

 

Copyright © 2004-2014 Karl L. Swartz. All rights reserved.
The Great Circle Mapper name and logo are trademarks of the Great Circle Mapper.
All other trademarks mentioned herein belong to their respective owners.
Please see credits for attibutions and further copyright information.

  Follow gcmap on Facebook Follow gcmap on Twitter

hCard Microformat

Geo Microformat